CW1734 Weather Reports


Display with metric or nautical units.
time (UTC)temp
F
wind
direction
speed
MPH
gust
MPH
rain 1hr
in
rain 24hr
in
rain mn
in
humidity
%
barometer
mb
20260831115404 71 322 4.0 8.0 0.00 0.03 0.02 66 1013.1
20260831114904 72 241 5.0 20.0 0.00 0.03 0.02 62 1013.1
20260831114404 73 285 9.0 15.0 0.00 0.03 0.02 66 1012.9
20260831113903 71 291 7.0 15.0 0.00 0.03 0.02 65 1012.9
20260831113404 72 269 8.0 15.0 0.00 0.03 0.02 66 1012.9
20260831112904 72 256 7.0 18.0 0.00 0.03 0.02 63 1012.6
20260831112404 73 285 9.0 16.0 0.00 0.03 0.02 65 1012.6
20260831111904 71 286 7.0 18.0 0.00 0.03 0.02 64 1012.6
20260831110404 72 301 10.0 16.0 0.00 0.03 0.02 66 1012.1
20260831105903 71 245 6.0 10.0 0.00 0.03 0.02 67 1012.1
20260831105404 71 268 6.0 16.0 0.00 0.03 0.02 67 1012.1
20260831104903 71 275 8.0 16.0 0.00 0.03 0.02 68 1012.1
20260831104404 70 274 11.0 16.0 0.00 0.03 0.02 70 1012.1
20260831103904 70 287 10.0 20.0 0.00 0.03 0.02 70 1012.1
20260831103404 69 275 7.0 20.0 0.00 0.03 0.02 72 1012.1
20260831102904 69 279 7.0 16.0 0.00 0.03 0.02 69 1011.8
20260831102404 69 266 7.0 22.0 0.00 0.03 0.02 69 1011.8
20260831101904 70 276 12.0 17.0 0.00 0.03 0.02 69 1011.8
20260831101404 70 273 10.0 17.0 0.00 0.03 0.02 69 1011.8
20260831100404 71 268 6.0 12.0 0.00 0.04 0.02 69 1011.7
20260831095904 70 285 9.0 17.0 0.00 0.04 0.02 71 1011.7
20260831095404 69 263 9.0 20.0 0.00 0.04 0.02 71 1011.7
20260831094404 69 266 8.0 15.0 0.00 0.04 0.02 72 1011.1
20260831093903 68 263 7.0 18.0 0.00 0.04 0.02 74 1011.1
20260831093403 68 262 10.0 18.0 0.00 0.04 0.02 74 1011.1
20260831092904 68 283 12.0 21.0 0.00 0.04 0.02 74 1011.1
20260831092405 68 241 5.0 15.0 0.00 0.04 0.02 75 1011.1
20260831091904 68 258 5.0 12.0 0.00 0.04 0.02 74 1011.1
20260831091404 68 267 6.0 17.0 0.00 0.04 0.02 76 1011.1
20260831090904 67 275 7.0 18.0 0.00 0.04 0.02 75 1010.4
20260831090404 67 281 10.0 17.0 0.00 0.04 0.02 76 1010.4
20260831085904 66 255 6.0 17.0 0.00 0.04 0.02 77 1010.4
20260831085404 65 275 5.0 18.0 0.00 0.04 0.02 78 1010.4
20260831084904 65 265 7.0 17.0 0.00 0.04 0.02 78 1010.4
20260831084404 65 258 5.0 17.0 0.00 0.04 0.02 78 1010.4
20260831083404 65 238 7.0 16.0 0.00 0.04 0.02 77 1010.4
20260831082904 65 243 6.0 14.0 0.00 0.04 0.02 79 1010.4
20260831082403 64 268 8.0 14.0 0.00 0.04 0.02 80 1010.4
20260831081904 63 254 8.0 15.0 0.00 0.04 0.02 80 1009.9
20260831081404 64 249 6.0 13.0 0.00 0.04 0.02 80 1009.9
20260831080904 63 263 7.0 14.0 0.00 0.04 0.02 80 1009.9
20260831080404 63 262 7.0 15.0 0.00 0.04 0.02 80 1009.9
20260831075404 63 227 3.0 10.0 0.00 0.04 0.02 81 1009.9
20260831074904 63 242 6.0 14.0 0.00 0.04 0.02 81 1009.9
20260831074403 63 252 6.0 13.0 0.00 0.04 0.02 81 1009.9
20260831073904 63 261 6.0 15.0 0.00 0.04 0.02 81 1009.2
20260831073404 63 260 9.0 15.0 0.00 0.04 0.02 81 1009.2
20260831072904 63 255 6.0 14.0 0.00 0.04 0.02 81 1009.2
20260831072404 63 259 7.0 15.0 0.00 0.04 0.02 81 1009.2
20260831071904 63 250 5.0 12.0 0.00 0.04 0.02 81 1009.2
20260831071404 63 247 5.0 14.0 0.00 0.04 0.02 81 1009.2
20260831070904 62 239 6.0 12.0 0.00 0.04 0.02 81 1009.2
20260831070404 62 254 5.0 10.0 0.00 0.04 0.02 81 1009.2
20260831065904 62 220 6.0 16.0 0.00 0.04 0.02 81 1009.2
20260831063904 62 244 6.0 14.0 0.00 0.04 0.02 80 1008.5
20260831063404 62 244 5.0 10.0 0.00 0.06 0.02 80 1008.5
20260831062904 62 241 5.0 9.0 0.00 0.06 0.02 81 1008.5
20260831062404 62 249 5.0 14.0 0.00 0.06 0.02 81 1008.5
20260831061403 62 252 5.0 12.0 0.00 0.06 0.02 82 1008.4
20260831060903 61 243 6.0 12.0 0.00 0.06 0.02 82 1008.3
20260831060404 61 246 7.0 13.0 0.00 0.06 0.02 83 1008.3
20260831055404 61 244 4.0 10.0 0.00 0.06 0.02 82 1008.0
20260831054904 61 236 6.0 13.0 0.00 0.06 0.02 82 1008.0
20260831054404 61 249 6.0 14.0 0.00 0.06 0.02 82 1008.0
20260831053403 61 264 6.0 14.0 0.00 0.06 0.02 82 1007.7
20260831052904 61 238 5.0 10.0 0.00 0.06 0.02 82 1007.7
20260831052403 61 247 6.0 13.0 0.00 0.06 0.02 81 1007.4
20260831051904 61 245 3.0 12.0 0.00 0.06 0.02 81 1007.4
20260831051404 61 237 5.0 10.0 0.00 0.06 0.02 81 1007.4
20260831050904 61 246 5.0 10.0 0.00 0.06 0.02 81 1007.4
20260831050404 61 254 7.0 12.0 0.00 0.06 0.02 81 1007.4
20260831045904 61 249 6.0 13.0 0.00 0.06 0.02 81 1007.1
20260831045404 61 255 6.0 14.0 0.00 0.06 0.02 81 1007.1
20260831044904 61 246 5.0 8.0 0.00 0.06 0.02 81 1007.1
20260831044404 61 250 5.0 12.0 0.00 0.06 0.02 81 1007.1
20260831043904 61 247 5.0 9.0 0.00 0.06 0.02 81 1007.1
20260831043404 61 248 5.0 10.0 0.00 0.06 0.02 81 1007.0
20260831042904 61 242 5.0 10.0 0.00 0.06 0.02 81 1006.9
20260831041903 61 214 5.0 12.0 0.00 0.06 0.02 81 1006.9
20260831041403 61 259 5.0 12.0 0.00 0.06 0.02 81 1006.9
20260831040403 61 240 5.0 10.0 0.00 0.06 0.02 81 1006.9
20260831035904 61 239 5.0 12.0 0.00 0.06 0.02 81 1006.9
20260831035403 61 242 4.0 16.0 0.00 0.06 0.02 81 1006.9
20260831034904 61 241 5.0 12.0 0.00 0.06 0.02 81 1006.8
20260831034405 61 246 5.0 10.0 0.00 0.06 0.02 81 1006.8
20260831033904 61 249 5.0 9.0 0.00 0.06 0.02 81 1006.8
20260831033403 61 254 3.0 10.0 0.00 0.06 0.02 81 1006.8
20260831032904 61 243 5.0 13.0 0.00 0.06 0.02 81 1006.7
20260831032403 61 247 6.0 15.0 0.00 0.06 0.02 81 1006.5
20260831031904 61 250 5.0 10.0 0.00 0.06 0.02 82 1006.5
20260831031404 61 250 6.0 10.0 0.00 0.06 0.02 82 1006.5
20260831030903 61 246 5.0 10.0 0.00 0.06 0.02 81 1006.5
20260831030403 61 253 5.0 12.0 0.00 0.06 0.02 81 1006.5
20260831025904 61 240 5.0 12.0 0.00 0.06 0.02 82 1006.5
20260831024904 61 244 4.0 15.0 0.00 0.06 0.02 82 1006.3
20260831023904 61 255 6.0 12.0 0.00 0.06 0.02 82 1006.3
20260831023404 61 244 7.0 14.0 0.00 0.06 0.02 82 1006.2
20260831022903 61 248 5.0 15.0 0.00 0.06 0.02 82 1006.2
20260831022404 61 246 6.0 17.0 0.00 0.06 0.02 82 1006.2
20260831021904 61 254 6.0 15.0 0.00 0.06 0.02 83 1006.2
20260831021404 61 254 7.0 13.0 0.00 0.06 0.02 83 1006.2
20260831020904 61 258 4.0 10.0 0.00 0.06 0.02 83 1006.2
20260831015904 61 255 7.0 14.0 0.00 0.06 0.02 84 1006.2
20260831015404 61 236 5.0 10.0 0.00 0.06 0.02 84 1006.0
20260831014904 61 262 5.0 13.0 0.00 0.06 0.02 84 1006.0
20260831014404 61 253 4.0 8.0 0.00 0.06 0.02 84 1005.9
20260831013904 62 267 7.0 15.0 0.00 0.06 0.02 84 1005.7
20260831013404 61 244 7.0 16.0 0.00 0.06 0.02 84 1005.7
20260831012904 61 253 6.0 12.0 0.00 0.06 0.02 85 1005.9
20260831012403 61 246 6.0 15.0 0.00 0.06 0.02 85 1005.9
20260831011904 61 236 6.0 13.0 0.00 0.06 0.02 85 1005.9
20260831011403 61 233 5.0 9.0 0.00 0.06 0.02 85 1005.5
20260831010904 61 262 3.0 10.0 0.00 0.06 0.02 85 1005.5
20260831010403 62 261 5.0 12.0 0.00 0.06 0.02 83 1005.5
20260831005904 63 286 7.0 15.0 0.00 0.06 0.02 84 1005.5
20260831005404 63 268 6.0 16.0 0.00 0.06 0.02 84 1005.5
20260831004904 63 236 6.0 12.0 0.00 0.06 0.02 85 1005.5
20260831004404 63 224 8.0 20.0 0.00 0.06 0.02 85 1005.4
20260831003904 63 221 9.0 20.0 0.00 0.06 0.02 86 1005.4
20260831003404 62 233 7.0 16.0 0.00 0.06 0.02 86 1005.4
20260831002904 62 227 6.0 15.0 0.01 0.06 0.02 86 1005.4
20260831002404 62 222 9.0 24.0 0.02 0.06 0.02 87 1005.4
20260831001903 62 234 8.0 15.0 0.02 0.06 0.02 87 1005.4
20260831001404 62 230 8.0 20.0 0.02 0.06 0.02 87 1005.4
20260831000904 62 233 9.0 20.0 0.02 0.06 0.02 87 1005.4
20260831000404 62 230 7.0 20.0 0.02 0.06 0.02 88 1005.4
20260830235403 63 223 9.0 20.0 0.02 0.06 0.02 88 1005.4
20260830234904 63 220 12.0 23.0 0.02 0.06 0.02 88 1005.3
20260830234404 63 227 5.0 13.0 0.03 0.06 0.02 88 1005.3
20260830233404 63 230 9.0 21.0 0.03 0.06 0.02 88 1005.4
20260830232403 63 2 0.0 0.0 0.02 0.05 0.00 87 1005.4
20260830231904 63 2 0.0 0.0 0.02 0.05 0.00 87 1005.4
20260830231404 63 2 0.0 12.0 0.02 0.05 0.00 87 1005.4
20260830230904 63 184 12.0 12.0 0.02 0.05 0.00 87 1005.4
20260830230404 63 184 12.0 16.0 0.02 0.05 0.00 86 1006.0
20260830225903 63 209 11.0 22.0 0.02 0.05 0.05 85 1006.0
20260830225404 63 214 10.0 16.0 0.02 0.05 0.05 84 1006.0
20260830224904 64 198 9.0 21.0 0.02 0.05 0.05 82 1006.0
20260830224404 65 203 14.0 26.0 0.01 0.04 0.04 81 1006.0
20260830223904 65 211 8.0 21.0 0.00 0.03 0.03 81 1006.0
20260830223404 65 221 9.0 18.0 0.00 0.03 0.03 81 1006.0
20260830222904 65 215 10.0 22.0 0.00 0.03 0.03 81 1006.0
20260830222404 65 209 10.0 17.0 0.00 0.03 0.03 81 1006.4
20260830221904 65 196 10.0 20.0 0.00 0.03 0.03 81 1006.4
20260830221404 64 218 7.0 17.0 0.00 0.03 0.03 81 1006.4
20260830220404 64 222 12.0 20.0 0.00 0.03 0.03 81 1006.4
20260830215904 64 220 7.0 20.0 0.00 0.03 0.03 81 1006.5
20260830215404 64 226 10.0 17.0 0.00 0.03 0.03 81 1006.5
20260830214904 64 211 9.0 17.0 0.00 0.03 0.03 81 1006.6
20260830213904 64 228 6.0 18.0 0.00 0.03 0.03 81 1006.6
20260830212904 64 218 9.0 18.0 0.00 0.03 0.03 81 1006.6
20260830212404 64 213 6.0 21.0 0.00 0.03 0.03 81 1006.6
20260830210904 65 215 10.0 15.0 0.00 0.03 0.03 81 1006.7
20260830210403 65 216 9.0 17.0 0.00 0.03 0.03 81 1006.7
20260830205404 64 217 8.0 17.0 0.00 0.03 0.03 81 1006.5
20260830204903 64 226 7.0 17.0 0.00 0.03 0.03 81 1006.5
20260830204404 64 226 7.0 23.0 0.00 0.03 0.03 81 1006.6
20260830203904 64 204 11.0 20.0 0.00 0.03 0.03 81 1006.6
20260830203405 64 228 6.0 15.0 0.00 0.03 0.03 82 1006.6
20260830201904 64 233 7.0 15.0 0.00 0.03 0.03 81 1006.6
20260830200404 64 222 12.0 21.0 0.00 0.03 0.03 80 1006.6
20260830195903 64 215 6.0 15.0 0.00 0.03 0.03 81 1006.6
20260830195404 64 226 7.0 16.0 0.00 0.03 0.03 81 1006.6
20260830194904 64 242 9.0 20.0 0.00 0.03 0.03 81 1006.6
20260830194404 64 212 6.0 14.0 0.00 0.03 0.03 81 1006.6
20260830193904 65 236 9.0 17.0 0.00 0.03 0.03 81 1006.6
20260830193404 65 219 9.0 18.0 0.00 0.03 0.03 80 1006.4
20260830192903 65 228 10.0 20.0 0.00 0.03 0.03 80 1006.4
20260830192404 65 220 14.0 29.0 0.00 0.03 0.03 80 1006.4
20260830191904 66 203 12.0 26.0 0.00 0.03 0.03 80 1006.4
20260830191403 66 214 9.0 26.0 0.00 0.03 0.03 80 1006.3
20260830190904 67 184 13.0 26.0 0.00 0.03 0.03 80 1006.3
20260830190403 67 207 10.0 25.0 0.00 0.03 0.03 80 1006.3
20260830185904 67 192 6.0 13.0 0.00 0.03 0.03 80 1006.3
20260830185404 67 190 10.0 24.0 0.00 0.03 0.03 79 1007.1
20260830184903 67 184 7.0 15.0 0.00 0.03 0.03 79 1007.1
20260830184404 67 164 5.0 12.0 0.00 0.03 0.03 79 1007.1
20260830183904 67 160 5.0 14.0 0.00 0.03 0.03 79 1007.1
20260830183404 67 182 5.0 14.0 0.00 0.03 0.03 79 1007.1
20260830182403 67 187 8.0 15.0 0.00 0.03 0.03 78 1007.1
20260830181903 67 203 5.0 12.0 0.00 0.03 0.03 78 1007.1
20260830181403 67 195 5.0 12.0 0.00 0.03 0.03 78 1007.1
20260830180904 67 193 6.0 12.0 0.00 0.03 0.03 78 1007.1
20260830180404 67 193 5.0 12.0 0.00 0.03 0.03 78 1007.1
20260830175904 66 188 8.0 12.0 0.00 0.03 0.03 78 1007.2
20260830175404 66 204 5.0 12.0 0.00 0.03 0.03 79 1007.2
20260830174904 66 197 4.0 8.0 0.00 0.03 0.03 79 1007.2
20260830174404 66 192 4.0 9.0 0.00 0.03 0.03 79 1007.4
20260830173904 66 192 5.0 9.0 0.00 0.03 0.03 79 1007.4
20260830173403 66 168 3.0 7.0 0.00 0.03 0.03 79 1007.4
20260830172904 66 191 6.0 12.0 0.00 0.03 0.03 79 1007.4
20260830171903 67 200 10.0 18.0 0.00 0.03 0.03 78 1007.6
20260830170903 67 190 8.0 16.0 0.00 0.03 0.03 78 1007.6
20260830170404 67 189 8.0 16.0 0.00 0.03 0.03 77 1007.6
20260830165903 67 188 6.0 13.0 0.00 0.03 0.03 77 1007.6
20260830165403 67 199 7.0 12.0 0.00 0.03 0.03 77 1007.6
20260830164904 67 197 7.0 14.0 0.00 0.03 0.03 77 1007.7
20260830164403 67 203 10.0 14.0 0.00 0.03 0.03 77 1007.7
20260830163903 67 201 9.0 17.0 0.00 0.03 0.03 77 1007.7
20260830163403 67 203 6.0 13.0 0.00 0.03 0.03 77 1007.7
20260830162904 67 211 7.0 15.0 0.00 0.03 0.03 77 1007.8
20260830162404 68 210 7.0 14.0 0.00 0.03 0.03 77 1008.0
20260830161904 68 198 7.0 10.0 0.00 0.03 0.03 77 1008.0
20260830161403 68 195 5.0 15.0 0.00 0.03 0.03 77 1008.0
20260830160904 68 208 9.0 16.0 0.00 0.03 0.03 77 1008.0
20260830160404 68 226 6.0 13.0 0.00 0.03 0.03 76 1008.1
20260830155403 68 211 6.0 17.0 0.00 0.03 0.03 75 1008.2
20260830154903 68 206 10.0 16.0 0.00 0.03 0.03 74 1008.2
20260830153904 69 212 8.0 22.0 0.00 0.03 0.03 74 1008.3
20260830153403 69 216 8.0 16.0 0.00 0.03 0.03 76 1008.3
20260830152904 69 200 8.0 13.0 0.00 0.03 0.03 75 1008.5
20260830152403 68 220 5.0 16.0 0.00 0.03 0.03 76 1008.5
20260830151903 68 221 10.0 20.0 0.00 0.03 0.03 75 1008.5
20260830151403 68 197 8.0 20.0 0.00 0.03 0.03 75 1008.5
20260830150403 68 213 9.0 15.0 0.00 0.03 0.03 76 1008.6
20260830145903 69 224 9.0 18.0 0.00 0.03 0.03 75 1008.6
20260830145405 69 202 7.0 13.0 0.00 0.03 0.03 76 1008.6
20260830144903 68 228 7.0 16.0 0.00 0.03 0.03 76 1008.8
20260830142903 69 219 7.0 17.0 0.00 0.03 0.03 76 1008.6
20260830141903 69 222 9.0 20.0 0.00 0.03 0.03 75 1008.6
20260830141404 69 209 12.0 16.0 0.00 0.03 0.03 75 1008.6
20260830140904 69 215 12.0 22.0 0.00 0.03 0.03 74 1008.6
20260830140403 70 202 12.0 21.0 0.00 0.03 0.03 73 1008.6
20260830135903 70 191 8.0 20.0 0.00 0.03 0.03 75 1008.7
20260830135403 70 218 11.0 17.0 0.00 0.03 0.03 74 1009.2
20260830134904 70 224 9.0 20.0 0.00 0.03 0.03 74 1009.2
20260830134404 69 213 10.0 21.0 0.00 0.03 0.03 76 1009.2
20260830133904 69 197 10.0 21.0 0.00 0.03 0.03 74 1009.2
20260830133404 70 211 7.0 17.0 0.00 0.03 0.03 75 1009.2
20260830132903 70 200 9.0 18.0 0.00 0.03 0.03 75 1009.2
20260830132403 70 207 9.0 17.0 0.00 0.03 0.03 75 1009.2
20260830131904 70 201 12.0 24.0 0.00 0.03 0.03 73 1009.2
20260830130904 71 192 10.0 20.0 0.00 0.03 0.03 71 1009.2
20260830130403 71 199 9.0 22.0 0.00 0.03 0.03 72 1009.2
20260830125903 70 209 10.0 20.0 0.00 0.03 0.03 74 1009.2
20260830125404 69 217 8.0 20.0 0.00 0.03 0.03 74 1009.4
20260830124403 69 288 7.0 18.0 0.00 0.03 0.03 75 1009.4
20260830123904 69 197 10.0 17.0 0.00 0.03 0.03 76 1009.4
20260830123404 69 205 7.0 13.0 0.00 0.03 0.03 75 1009.4
20260830122903 69 207 12.0 20.0 0.00 0.03 0.03 76 1009.4
20260830122404 69 199 9.0 17.0 0.00 0.03 0.03 77 1009.4
20260830121903 69 204 10.0 20.0 0.00 0.03 0.03 76 1009.3
20260830121404 69 202 6.0 15.0 0.00 0.03 0.03 77 1009.3
20260830120904 69 213 8.0 15.0 0.00 0.03 0.03 77 1009.3
20260830120404 69 222 7.0 18.0 0.00 0.03 0.03 77 1009.3
20260830115904 69 217 10.0 20.0 0.00 0.03 0.03 76 1009.3